Olympia, WA

12:38 PM PST on February 11, 2016 (GMT -0800)
Olympia

Weather History for KOLM - May, 2014

Change the Weather History Date:

Monday, May 19, 2014

  Actual Average Record
Temperature  
Mean Temperature 57 °F 55 °F  
Max Temperature 70 °F 66 °F 86 °F (1963)
Min Temperature 43 °F 44 °F 31 °F (1962)
Degree Days  
Heating Degree Days 8 10  
Month to date heating degree days 169 229  
Since 1 July heating degree days 4984 5088  
Cooling Degree Days 0 0  
Month to date cooling degree days 1 0  
Year to date cooling degree days 1 0  
Growing Degree Days 8 (Base 50)    
Moisture  
Dew Point 46 °F    
Average Humidity 69    
Maximum Humidity 100    
Minimum Humidity 37    
Precipitation  
Precipitation T in 0.07 in 0.81 in (1968)
Month to date precipitation 2.75 1.47  
Year to date precipitation 29.22 23.41  
Sea Level Pressure  
Sea Level Pressure 29.97 in    
Wind  
Wind Speed 3 mph (NNW)    
Max Wind Speed 13 mph    
Max Gust Speed 15 mph    
Visibility 5 miles    
Events Fog    
T = Trace of Precipitation, MM = Missing Value Source: NWS Daily Summary

Daily Weather History Graph

Daily Weather History Graph

Search for Another Location

Airport or City:

Trip Planner

Search our weather history database for the weather conditions in past years. The results will help you decide how hot, cold, wet, or windy it might be!

Date:

Astronomy

May. 19, 2014 Rise Set
Actual Time 5:31 AM PDT 8:45 PM PDT
Civil Twilight 4:54 AM PDT 9:22 PM PDT
Nautical Twilight 4:07 AM PDT 10:10 PM PDT
Astronomical Twilight 3:07 AM PDT 11:10 PM PDT
Moon 12:31 AM PDT (5/19) 10:42 AM PDT (5/19)
Length of Visible Light 16h 27m
Length of Day
15h 13m
Waning Gibbous, 70% of the Moon is Illuminated
May 19
Waning Gibbous
May 21
Last Quarter
May 28
New
Jun 5
First Quarter
Jun 12
Full

Hourly Weather History & Observations

Time (PDT) Temp. Windchill Dew Point Humidity Pressure Visibility Wind Dir Wind Speed Gust Speed Precip Events Conditions
12:34 AM 48.0 °F - 46.9 °F 96% 29.93 in 1.2 mi Calm Calm - N/A   Partly Cloudy
12:40 AM 48.0 °F - 46.9 °F 96% 29.93 in 0.2 mi Calm Calm - N/A Fog Fog
12:52 AM 48.2 °F - 46.4 °F 93% 29.93 in 0.2 mi Calm Calm - N/A Fog Fog
12:54 AM 48.9 °F - 46.9 °F 93% 29.93 in 0.2 mi Calm Calm - N/A Fog Fog
1:13 AM 44.1 °F - 44.1 °F 100% 29.93 in 0.2 mi Calm Calm - N/A Fog Fog
1:54 AM 45.0 °F - 44.1 °F 97% 29.93 in 0.5 mi Calm Calm - N/A Fog Fog
2:01 AM 45.0 °F - 45.0 °F 100% 29.93 in 1.5 mi Calm Calm - N/A   Mostly Cloudy
2:08 AM 44.6 °F - 44.6 °F 100% 29.93 in 0.8 mi Calm Calm - N/A   Mist
2:18 AM 45.0 °F - 45.0 °F 100% 29.93 in 0.2 mi Calm Calm - N/A Fog Fog
2:34 AM 45.0 °F 43.5 °F 44.1 °F 97% 29.93 in 0.8 mi NE 3.5 mph - N/A   Overcast
2:43 AM 46.9 °F - 46.9 °F 100% 29.93 in 1.5 mi Calm Calm - N/A   Overcast
2:46 AM 46.0 °F - 46.0 °F 100% 29.93 in 3.0 mi Calm Calm - N/A   Mostly Cloudy
2:52 AM 44.6 °F - 44.6 °F 100% 29.93 in 1.2 mi Calm Calm - N/A   Mostly Cloudy
2:54 AM 46.0 °F - 45.0 °F 96% 29.94 in 0.8 mi Calm Calm - N/A   Mostly Cloudy
3:03 AM 45.0 °F - 44.1 °F 97% 29.94 in 0.2 mi Calm Calm - N/A Fog Fog
3:11 AM 46.0 °F - 45.0 °F 96% 29.94 in 0.5 mi Calm Calm - N/A Fog Fog
3:14 AM 46.0 °F - 45.0 °F 96% 29.94 in 1.2 mi Calm Calm - N/A   Partly Cloudy
3:20 AM 46.0 °F - 45.0 °F 96% 29.94 in 2.0 mi Calm Calm - N/A   Partly Cloudy
3:27 AM 45.0 °F - 44.1 °F 97% 29.94 in 4.0 mi Calm Calm - N/A   Scattered Clouds
3:31 AM 45.0 °F - 44.1 °F 97% 29.94 in 2.5 mi Calm Calm - N/A   Mostly Cloudy
3:33 AM 45.0 °F - 44.1 °F 97% 29.94 in 1.2 mi Calm Calm - N/A   Mostly Cloudy
3:38 AM 45.0 °F - 44.1 °F 97% 29.94 in 1.5 mi Calm Calm - N/A   Mostly Cloudy
3:45 AM 44.1 °F 42.5 °F 43.0 °F 96% 29.94 in 0.8 mi South 3.5 mph - N/A   Overcast
3:54 AM 45.0 °F 42.6 °F 44.1 °F 97% 29.94 in 0.5 mi South 4.6 mph - N/A Fog Fog
4:21 AM 46.0 °F - 45.0 °F 96% 29.94 in 1.5 mi Calm Calm - N/A   Overcast
4:26 AM 46.0 °F - 45.0 °F 96% 29.94 in 3.0 mi Calm Calm - N/A   Overcast
4:54 AM 46.9 °F - 46.0 °F 97% 29.95 in 6.0 mi Calm Calm - N/A   Overcast
6:54 AM 48.9 °F - 48.0 °F 97% 29.97 in 7.0 mi Calm Calm - N/A   Overcast
7:54 AM 54.0 °F - 51.1 °F 90% 29.98 in 10.0 mi Calm Calm - N/A   Mostly Cloudy
8:04 AM 54.0 °F - 50.0 °F 86% 29.98 in 10.0 mi Calm Calm - N/A   Mostly Cloudy
8:54 AM 55.0 °F - 50.0 °F 83% 29.99 in 10.0 mi Variable 3.5 mph - N/A   Overcast
9:54 AM 55.9 °F - 50.0 °F 80% 30.00 in 10.0 mi SW 3.5 mph - N/A   Overcast
10:54 AM 57.9 °F - 50.0 °F 75% 30.01 in 10.0 mi West 3.5 mph - 0.00 in   Overcast
11:54 AM 60.1 °F - 48.9 °F 67% 30.02 in 10.0 mi West 4.6 mph - N/A   Mostly Cloudy
12:54 PM 63.0 °F - 46.9 °F 56% 30.02 in 10.0 mi Calm Calm - N/A   Mostly Cloudy
1:54 PM 66.0 °F - 44.1 °F 45% 30.01 in 10.0 mi Variable 3.5 mph - N/A   Mostly Cloudy
2:54 PM 69.1 °F - 46.0 °F 44% 30.01 in 10.0 mi NNW 8.1 mph - N/A   Mostly Cloudy
2:57 PM 69.1 °F - 46.0 °F 44% 30.01 in 10.0 mi NNW 6.9 mph - N/A   Mostly Cloudy
3:54 PM 66.0 °F - 46.0 °F 48% 30.01 in 10.0 mi NNW 8.1 mph - N/A   Mostly Cloudy
4:54 PM 69.1 °F - 46.0 °F 44% 30.00 in 10.0 mi NE 3.5 mph - N/A   Scattered Clouds
5:54 PM 69.1 °F - 43.0 °F 39% 30.00 in 10.0 mi NNE 9.2 mph - N/A   Clear
6:54 PM 68.0 °F - 46.0 °F 45% 30.01 in 10.0 mi North 8.1 mph - N/A   Scattered Clouds
7:54 PM 64.9 °F - 48.9 °F 56% 30.02 in 10.0 mi WNW 6.9 mph - N/A   Clear
8:54 PM 62.1 °F - 48.9 °F 62% 30.03 in 10.0 mi NNW 5.8 mph - N/A   Mostly Cloudy
9:54 PM 59.0 °F - 48.9 °F 69% 30.05 in 10.0 mi Calm Calm - N/A   Clear
10:54 PM 53.6 °F - 48.2 °F 82% 30.06 in 10.0 mi Calm Calm - N/A   Clear
11:54 PM 50.0 °F - 48.0 °F 93% 30.07 in 10.0 mi Calm Calm - N/A   Clear